Location: Paimpol
(48.7798°N, 3.0488°W)
Time: 16:54:39
(UTC+01:00)

N. Korean satellite - Visible Passes

Search period start: 30 November 2021 00:00
Search period end: 10 December 2021 00:00
Orbit: 447 x 495 km, 97.3° (Epoch: 30 November)

Date Brightness Start Highest point End Pass type
(mag) Time Alt. Az. Time Alt. Az. Time Alt. Az.
30 Nov 7.7 06:11:44 10° NNE 06:15:00 40° E 06:18:12 10° S visible
30 Nov 8.0 07:45:48 10° NNW 07:47:53 15° WNW 07:49:58 10° WSW visible
30 Nov 9.3 18:23:00 10° SSW 18:25:51 22° W 18:28:42 10° NW visible
01 Dec 9.2 05:43:50 10° NE 05:46:21 19° E 05:48:51 10° SE visible
01 Dec 7.2 07:16:36 10° N 07:19:37 30° WNW 07:22:37 10° SW visible
01 Dec 7.8 17:53:48 10° S 17:57:14 47° W 18:00:40 10° NNW visible
02 Dec 6.3 06:47:50 10° N 06:51:14 67° WNW 06:54:34 10° SSW visible
03 Dec 7.2 06:19:23 10° NNE 06:22:43 51° E 06:26:01 10° S visible
03 Dec 8.2 07:53:54 10° NNW 07:55:30 13° WNW 07:57:08 10° W visible
03 Dec 9.6 18:31:05 10° SW 18:33:37 18° W 18:36:08 10° NW visible
04 Dec 8.8 05:51:18 10° NE 05:54:04 23° E 05:56:51 10° SSE visible
04 Dec 7.4 07:24:25 10° NNW 07:27:15 25° WNW 07:30:03 10° SW visible
04 Dec 8.2 18:01:38 10° SSW 18:04:57 37° W 18:08:14 10° NNW visible
05 Dec 9.9 05:24:12 10° ENE 05:25:19 11° E 05:26:26 10° ESE visible
05 Dec 6.4 06:55:31 10° N 06:58:52 53° WNW 07:02:09 10° SSW visible
06 Dec 6.7 06:26:57 10° NNE 06:30:21 65° ESE 06:33:41 10° S visible
06 Dec 8.4 08:02:09 10° NW 08:03:03 11° WNW 08:03:56 10° WNW visible
06 Dec 9.7 18:39:11 10° SW 18:41:18 15° W 18:43:23 10° NW visible
07 Dec 8.4 05:58:43 10° NE 06:01:43 28° E 06:04:41 10° SSE visible
07 Dec 7.7 07:32:10 10° NNW 07:34:46 21° WNW 07:37:22 10° WSW visible
07 Dec 8.7 18:09:26 10° SSW 18:12:34 30° W 18:15:41 10° NNW visible
08 Dec 9.6 05:31:08 10° ENE 05:32:57 14° E 05:34:46 10° ESE visible
08 Dec 6.7 07:03:09 10° N 07:06:23 42° WNW 07:09:36 10° SW visible
09 Dec 6.4 06:34:28 10° NNE 06:37:52 82° ESE 06:41:15 10° S visible
09 Dec 9.9 18:47:23 10° WSW 18:48:53 12° W 18:50:23 10° WNW visible
